Theta_e
309 309 307 306 305 305 306 306 307 308 308 308 309 309 309 309 312 313 315 318 317 316 315 315 324 326 328 328 329 330 327 328 328 328 328 327 326 329 328 326 326 326 326 326 326
305 305 306 307 309 308 307 306 305 306 307 308 308 308 309 309 310 313 324 319 319 315 312 315 321 324 327 328 329 328 326 328 328 326 326 327 326 327 325 326 325 326 326 325 326
299 301 303 304 305 305 307 308 309 307 305 305 306 307 307 307 308 315 318 320 320 317 313 312 317 326 326 327 328 327 328 327 328 330 329 327 327 328 326 322 326 326 326 325 325
298 297 296 298 300 302 303 305 306 307 309 308 306 305 305 305 307 316 318 317 317 318 317 311 315 327 326 326 327 328 327 329 328 329 329 327 328 327 327 327 328 327 326 325 325
303 303 301 298 296 297 299 301 303 304 305 307 309 308 306 303 305 315 317 316 317 315 317 312 316 317 318 322 326 327 326 327 328 329 329 329 327 327 327 328 328 326 326 325 325
306 304 303 303 303 301 299 299 298 300 303 305 308 307 309 306 308 310 314 315 313 313 317 313 317 318 318 318 318 322 324 325 327 328 328 328 327 327 326 326 327 326 326 325 325
303 303 302 302 302 303 303 302 300 299 299 302 307 307 310 312 309 309 309 311 313 311 311 317 317 318 318 316 318 318 317 318 319 322 324 326 324 325 326 326 326 325 325 325 325
301 301 302 302 302 302 302 302 302 301 300 300 303 309 310 309 310 311 309 311 312 312 311 311 315 318 318 318 318 317 317 319 319 321 322 322 323 324 326 326 326 325 325 324 324
301 301 301 301 301 301 302 302 302 303 302 301 306 308 309 307 309 312 312 311 312 312 312 313 316 318 317 316 314 315 316 316 317 319 320 322 323 323 325 325 325 325 325 324 324
301 302 301 301 301 301 301 301 304 308 303 304 306 308 307 309 309 309 311 312 309 309 309 311 315 315 313 313 316 316 316 317 318 320 319 321 322 323 324 324 324 325 325 325 324
301 302 302 302 301 301 301 303 308 310 308 307 306 306 310 310 311 312 311 310 308 310 309 312 313 319 319 319 318 316 318 319 320 321 321 321 322 322 323 323 324 325 324 324 325
301 301 302 302 302 301 302 304 308 306 306 307 307 309 308 309 310 311 313 310 309 308 310 312 313 316 320 320 319 319 318 319 320 321 321 320 321 321 322 322 325 327 327 324 324
302 302 302 302 301 301 302 304 304 304 306 308 308 308 308 307 311 310 313 312 311 310 310 311 314 315 319 318 321 321 319 319 319 321 320 320 321 321 322 324 326 327 328 328 328
303 302 302 301 302 303 302 303 305 306 308 309 311 309 309 310 311 309 311 315 313 311 310 310 312 314 316 317 316 317 317 318 319 320 322 321 323 322 322 323 323 325 326 327 325
302 302 301 301 303 304 302 303 306 306 306 307 309 311 312 311 313 311 310 313 315 313 312 311 312 313 314 314 315 317 318 319 319 320 321 323 322 321 321 323 322 320 324 325 325
302 302 302 301 302 302 303 304 307 309 310 308 308 307 310 312 312 313 314 312 314 315 312 311 314 313 314 316 316 317 317 318 318 319 322 322 322 322 322 323 322 323 323 324 324
302 303 301 302 302 302 303 305 309 310 308 307 307 307 308 308 313 313 314 314 314 315 315 313 312 314 314 314 314 315 313 316 319 321 324 322 322 324 322 322 322 322 323 324 325
303 302 301 302 302 302 304 305 308 307 308 308 307 306 308 307 307 310 313 316 314 314 314 315 314 313 314 314 314 314 315 319 322 323 324 322 324 324 322 322 324 324 325 325 325
302 301 304 304 303 303 304 305 305 307 306 306 306 307 307 307 307 309 310 313 315 314 314 315 315 316 315 315 314 314 317 317 319 321 322 322 322 323 323 325 324 324 325 325 325
301 301 303 305 303 303 304 303 304 305 305 306 306 306 306 307 307 307 310 313 315 315 313 315 314 316 316 315 314 313 314 317 315 321 325 323 324 325 324 326 325 325 324 325 325
301 301 303 305 304 303 304 302 304 303 304 306 306 306 306 307 307 307 310 312 311 312 314 314 314 317 316 315 315 313 314 313 315 317 321 322 323 321 322 325 325 323 325 326 326
301 298 302 304 303 303 304 304 304 304 305 305 306 306 308 308 308 307 309 311 310 312 313 314 312 315 315 315 316 316 315 314 317 318 318 320 322 321 320 323 324 324 325 326 327
301 300 303 305 305 305 305 304 304 305 305 306 306 305 306 307 306 309 310 311 310 310 311 313 315 315 314 318 315 315 315 315 314 317 320 322 322 319 319 319 325 324 326 327 326
301 301 302 303 301 303 304 304 304 304 304 304 303 304 304 305 306 308 308 307 308 308 312 309 313 317 316 317 317 315 315 314 315 315 318 322 322 324 323 324 325 326 326 327 327
301 299 303 300 301 301 301 302 304 305 305 304 304 303 304 305 307 308 308 308 308 308 310 308 311 316 318 316 316 319 316 316 317 317 318 319 321 321 322 323 325 327 326 326 326
301 301 300 300 301 301 301 304 305 306 307 306 306 306 307 307 309 309 309 309 310 309 310 307 309 314 320 318 316 316 318 316 316 317 319 321 321 320 321 325 326 327 325 325 326
301 301 300 301 301 298 299 303 304 306 306 306 306 305 306 307 308 307 308 309 309 309 310 309 310 310 318 319 316 316 316 317 317 319 320 322 322 319 321 325 325 326 326 326 327
Wind_Speed
23 23 23 25 27 27 25 25 25 25 25 24 25 26 25 26 25 23 28 24 19 17 21 18 18 18 14 12 12 8 2 5 6 5 9 6 3 23 17 13 6 15 19 17 11
22 23 24 24 25 26 28 26 25 26 27 26 26 25 24 26 30 32 28 23 22 24 22 22 16 18 12 8 9 8 5 9 10 6 7 17 4 21 12 20 15 13 16 18 18
21 20 21 22 24 25 27 28 28 26 26 27 26 26 23 23 27 34 23 22 22 24 31 23 20 17 15 11 11 9 11 22 13 20 17 16 28 24 15 10 24 18 19 17 25
20 23 23 23 23 23 24 27 28 28 27 27 26 26 23 18 9 3 15 15 16 14 26 28 20 11 7 9 24 5 17 26 28 31 17 13 23 22 29 31 42 30 17 23 29
19 19 19 20 22 23 24 24 25 27 28 26 26 25 21 17 27 10 19 16 8 5 17 28 23 20 8 6 6 7 13 25 27 28 31 30 21 24 31 42 41 28 21 26 31
22 21 21 21 21 21 21 23 25 26 25 24 20 19 20 15 35 33 30 27 18 14 9 27 15 20 4 8 5 9 13 20 20 26 31 23 24 20 27 34 40 26 25 28 34
21 22 22 22 22 23 23 23 22 23 26 25 18 17 25 47 24 22 29 38 38 31 27 19 30 10 8 6 18 18 15 16 13 21 14 29 18 22 33 32 36 27 28 32 37
21 23 23 24 24 24 24 25 26 26 22 20 18 15 22 32 23 44 37 24 28 33 34 32 22 24 21 12 9 5 4 7 9 17 21 12 20 19 35 32 35 32 30 35 39
22 23 24 25 25 25 26 28 27 28 27 19 14 13 19 15 32 42 41 40 32 25 23 13 21 16 4 5 5 3 14 17 20 14 6 6 18 12 25 24 27 34 31 36 42
25 24 24 25 26 26 27 28 24 15 12 7 11 5 22 18 15 26 29 35 29 18 23 18 11 6 5 5 15 13 8 7 16 3 9 15 16 17 27 23 25 31 36 35 40
24 26 27 26 24 24 27 27 8 2 6 10 9 15 2 15 13 9 10 19 25 16 11 17 8 19 26 21 13 10 6 10 17 2 8 7 11 11 18 18 20 28 28 33 34
25 24 24 25 27 22 22 10 7 12 14 23 30 36 45 34 13 9 16 13 13 18 10 6 30 21 16 15 15 10 11 16 19 6 6 8 14 14 13 11 21 28 29 27 27
25 24 24 24 25 24 14 11 10 21 7 14 29 25 39 35 19 17 17 13 7 13 26 29 21 17 20 16 16 18 18 16 20 3 7 7 13 13 17 7 22 30 29 22 29
25 23 23 25 20 11 13 1 14 8 5 7 7 9 13 22 15 43 20 12 7 19 19 19 19 23 17 24 16 19 14 17 18 4 8 4 5 5 9 12 7 16 17 25 22
24 24 22 19 23 20 10 16 10 5 5 2 4 4 7 18 11 23 35 25 12 10 10 12 18 22 19 19 21 17 12 9 13 8 5 8 3 7 4 8 10 9 17 11 15
24 24 24 24 19 14 9 10 3 3 8 6 5 11 5 13 21 7 21 31 17 5 7 9 15 23 21 17 20 8 2 2 11 3 10 18 7 5 7 9 7 5 8 12 19
25 25 23 20 19 14 13 6 3 6 4 1 10 15 8 12 8 10 10 17 17 13 16 5 13 5 10 15 7 13 6 4 3 5 6 8 5 14 7 9 9 9 10 18 22
28 24 22 16 11 9 2 1 6 5 12 14 16 14 6 18 8 11 11 13 23 14 11 14 11 22 14 14 13 14 14 6 5 3 5 7 7 7 10 11 19 14 16 22 26
26 24 11 13 3 8 5 5 4 3 6 12 14 7 6 14 7 10 6 13 8 18 7 13 16 2 19 5 16 16 15 13 2 3 2 4 6 8 1 3 3 12 22 26 29
26 19 8 12 6 9 1 5 4 6 10 10 6 7 11 13 9 13 5 11 11 7 3 2 4 8 18 20 17 9 10 7 5 6 5 4 3 6 5 7 5 7 14 25 28
18 8 8 2 10 2 2 5 5 14 13 5 5 7 9 11 3 7 5 8 18 18 11 4 2 3 9 15 19 8 11 5 7 5 5 1 6 7 9 9 12 10 22 29 31
9 3 9 5 1 1 1 4 5 9 11 6 6 9 11 11 9 4 8 9 16 14 9 6 5 5 11 5 19 19 17 9 11 9 5 3 7 5 11 14 14 17 24 29 31
11 5 7 2 2 1 3 6 5 7 9 4 4 4 11 12 7 1 5 10 14 15 13 8 5 7 6 2 3 23 21 22 3 3 7 11 10 3 4 8 16 17 26 29 29
6 3 5 4 3 2 4 6 3 11 10 8 6 5 9 10 9 7 12 9 20 21 14 7 5 13 14 3 5 13 22 9 16 9 8 11 3 4 6 9 7 12 27 32 33
5 3 4 3 4 7 3 4 6 8 5 12 4 5 3 6 8 12 13 14 13 17 4 4 4 5 18 20 9 4 12 22 18 14 16 14 9 9 12 12 13 26 27 29 31
6 5 5 8 10 4 3 2 8 6 3 7 4 8 4 5 8 10 14 9 8 6 6 5 4 7 6 18 24 18 5 20 22 14 12 7 8 9 12 14 15 26 29 29 35
7 8 6 5 5 2 3 5 9 13 7 12 13 10 7 11 11 19 21 20 12 6 6 5 3 9 6 14 8 15 26 12 12 18 18 15 11 7 4 12 17 23 31 35 39
Wind_Direction
290 290 288 286 287 285 282 281 278 275 274 275 274 274 278 283 280 273 265 274 271 263 256 262 214 201 209 213 201 192 108 254 239 195 251 233 346 299 311 284 274 207 238 257 219
291 289 287 285 283 285 288 285 277 275 274 271 272 273 276 282 281 270 271 278 270 255 249 243 221 203 205 213 205 175 155 237 219 195 253 294 267 291 303 297 293 275 261 255 204
311 305 295 288 282 278 279 281 283 278 274 273 270 273 275 280 289 273 277 267 257 243 238 238 222 214 221 198 209 191 211 231 264 253 259 285 294 296 278 279 277 268 267 225 199
324 317 312 306 298 287 280 277 279 278 276 275 274 270 268 265 241 220 220 221 219 236 226 210 207 196 214 194 226 223 232 241 250 260 269 263 283 289 289 280 288 279 271 224 205
337 336 334 323 313 307 298 285 277 274 274 275 275 274 274 243 236 205 199 199 234 267 230 203 201 208 220 203 234 191 245 247 263 278 278 278 269 269 281 288 291 274 247 225 219
333 330 329 328 325 319 312 303 291 280 274 273 276 279 272 249 254 246 230 230 235 255 248 211 211 213 240 241 222 251 256 268 266 263 273 275 273 277 276 285 289 265 247 233 224
330 330 328 325 320 320 319 311 302 290 281 275 274 272 257 247 245 246 242 248 242 242 239 237 226 198 222 300 282 278 284 280 260 266 261 267 272 265 275 282 286 273 253 232 227
324 322 320 321 320 320 317 314 304 298 286 283 269 263 256 258 261 249 243 240 230 234 234 232 240 247 239 256 312 337 292 271 270 253 257 235 271 274 283 282 275 275 254 230 231
323 322 321 318 313 313 314 311 310 297 277 260 255 234 275 273 253 257 244 239 233 230 221 223 219 220 190 202 309 255 260 264 278 251 260 201 274 276 279 277 274 279 267 238 237
325 323 319 318 318 314 310 313 317 307 281 196 222 241 253 248 268 254 251 235 228 232 221 209 206 178 149 151 222 218 230 259 255 140 226 252 261 272 277 261 262 275 278 248 236
320 321 322 321 316 318 312 332 342 323 314 224 215 218 101 27 237 280 233 198 205 205 183 176 196 206 207 206 225 236 222 246 260 193 233 245 263 272 278 294 269 274 270 261 246
322 319 317 318 316 318 308 306 19 327 299 284 267 248 260 272 297 251 215 151 176 202 158 167 226 207 204 208 217 241 247 253 283 272 245 271 269 276 278 266 260 269 272 263 259
323 320 319 316 312 312 294 300 334 335 266 277 252 243 237 242 227 251 198 178 172 187 192 203 225 200 203 206 203 222 230 246 250 333 265 285 283 284 283 266 271 260 256 258 262
326 323 322 318 314 302 310 297 323 312 286 272 217 251 220 216 227 233 218 186 188 200 199 230 224 196 198 212 197 224 215 242 259 276 264 129 284 295 285 303 287 258 242 247 251
327 325 321 317 300 294 307 303 306 164 296 230 134 34 282 184 153 220 215 215 209 165 171 210 184 212 211 205 200 230 224 226 247 234 258 248 270 264 233 284 281 265 247 239 220
330 327 318 311 296 326 320 317 303 182 244 308 63 350 43 221 244 281 174 207 209 223 229 214 202 201 213 202 208 206 248 261 252 239 254 263 187 226 235 224 258 246 246 197 185
324 325 312 297 280 308 311 323 206 223 285 28 354 341 340 337 218 243 240 190 187 196 215 163 222 223 176 206 173 202 130 254 276 219 229 237 189 245 247 233 224 260 198 179 182
327 325 318 313 297 275 333 144 236 249 256 350 352 330 54 7 342 340 234 206 215 195 187 203 210 211 179 197 193 212 182 172 200 209 193 183 230 247 214 232 240 257 207 178 182
337 335 359 353 240 163 186 208 238 307 18 348 337 351 353 355 340 351 331 239 226 216 185 200 229 180 188 150 173 201 206 181 30 291 132 220 280 323 32 261 158 149 165 179 185
339 340 8 353 160 158 146 258 292 333 352 2 6 354 331 335 350 4 312 33 348 297 195 276 193 218 202 197 202 173 161 174 200 204 219 267 219 220 212 223 165 155 175 180 183
346 343 4 90 161 147 219 235 296 303 316 338 327 309 300 300 0 357 295 318 14 347 321 200 145 263 196 203 182 176 179 177 156 199 174 207 254 209 206 184 187 197 190 180 186
355 342 344 164 75 225 275 317 321 301 302 280 256 246 273 315 312 315 271 323 357 2 351 284 209 207 235 250 193 204 199 188 194 194 240 163 260 238 198 195 185 192 190 190 193
350 309 355 237 65 348 256 269 263 276 279 273 292 308 291 287 317 348 295 313 317 9 338 330 275 251 339 211 183 199 198 215 149 102 190 204 252 191 213 197 203 171 185 193 192
359 336 338 39 52 292 330 288 290 305 299 263 260 295 290 287 270 284 282 286 305 315 336 334 280 234 218 238 139 196 204 173 194 217 211 226 186 177 183 159 160 178 186 192 193
14 313 331 313 324 311 279 286 308 321 288 278 288 231 312 279 298 280 274 289 279 307 334 33 276 307 266 252 275 189 189 201 204 198 202 228 201 212 190 172 190 191 185 186 191
4 339 330 289 295 289 280 280 309 325 272 319 301 314 303 255 257 283 290 285 287 290 345 347 283 323 259 243 241 250 248 202 215 209 227 194 223 205 204 189 152 179 185 183 192
337 323 310 290 314 347 258 339 301 318 263 231 280 304 270 259 272 290 279 270 243 212 247 295 336 351 278 230 239 252 239 225 208 206 199 208 222 152 152 169 176 179 190 189 196